This is the latest recevied weather packets stored in our database for station/object wb2ifs-13. If no packets are shown the sender has not sent any weather packets the latest 10 day(s).
| Time | Temp. | Humidity | Pressure | Rain* | Wind** | Luminosity | Snow |
|---|---|---|---|---|---|---|---|
| 1777653898 | 17.22° C | 44% | 1014.5 hPa | 0 mm | - | - | - |
| 1777653000 | 17.22° C | 42% | 1014.7 hPa | 0 mm | - | - | - |
| 1777652098 | 16.67° C | 43% | 1014.9 hPa | 0 mm | - | - | - |
| 1777651199 | 16.67° C | 43% | 1015.2 hPa | 0 mm | - | - | - |
| 1777650299 | 16.11° C | 44% | 1015.5 hPa | 0 mm | - | - | - |
| 1777649399 | 16.11° C | 44% | 1015.8 hPa | 0 mm | - | - | - |
| 1777648499 | 16.67° C | 52% | 1015.9 hPa | 0 mm | - | - | - |
| 1777647601 | 15.56° C | 46% | 1016.2 hPa | 0 mm | - | - | - |
| 1777646699 | 15° C | 52% | 1016 hPa | 0 mm | - | - | - |
| 1777645799 | 14.44° C | 50% | 1016 hPa | 0 mm | - | - | - |
| 1777644898 | 13.89° C | 53% | 1016.1 hPa | 0 mm | - | - | - |
| 1777644001 | 13.33° C | 54% | 1016.1 hPa | 0 mm | - | - | - |
| 1777643098 | 12.22° C | 61% | 1016.3 hPa | 0 mm | - | - | - |
| 1777642199 | 11.67° C | 64% | 1016.2 hPa | 0 mm | - | - | - |
| 1777641298 | 11.11° C | 70% | 1016.2 hPa | 0 mm | - | - | - |
| 1777640400 | 10.56° C | 70% | 1016.4 hPa | 0 mm | - | - | - |
| 1777639498 | 10° C | 74% | 1016.6 hPa | 0 mm | - | - | - |
| 1777638598 | 8.89° C | 81% | 1016.6 hPa | 0 mm | - | - | - |
| 1777637700 | 8.33° C | 83% | 1016.5 hPa | 0 mm | - | - | - |
| 1777636798 | 6.67° C | 89% | 1016.3 hPa | 0 mm | - | - | - |
| 1777635898 | 5.56° C | 92% | 1016.3 hPa | 0 mm | - | - | - |
| 1777634998 | 5.56° C | 91% | 1016.3 hPa | 0 mm | - | - | - |
| 1777634098 | 5° C | 91% | 1016.1 hPa | 0 mm | - | - | - |
| 1777633201 | 5° C | 91% | 1016.2 hPa | 0 mm | - | - | - |
| 1777632300 | 4.44° C | 91% | 1016 hPa | 0 mm | - | - | - |
* Rain latest hour (hover to see other rain measurements)
** Current wind speed in m/s (hover to see current wind gust speed)